Temperature
17 17 16 16 16 16 16 16 16 15 15 15 15 15 15 15 15 15 15 15 15 14 14 14 14 14 14 14 14 14 14 14 13 13 13 13 13 13
16 16 16 16 16 16 16 15 15 15 15 15 15 15 15 15 14 14 14 14 14 14 14 14 14 14 14 14 14 13 13 13 13 13 13 13 12 12
16 16 16 16 16 16 15 15 15 15 15 15 14 14 14 14 14 14 14 14 14 14 13 13 13 13 13 13 13 13 13 13 13 12 12 12 12 12
16 16 16 16 15 15 15 15 15 15 14 14 14 14 14 14 14 14 14 13 13 13 13 13 13 13 13 13 13 12 12 12 12 12 12 12 11 11
15 15 15 15 15 15 15 15 15 14 14 14 14 13 13 13 13 13 13 13 13 13 12 12 12 12 12 12 12 12 12 12 12 11 11 11 11 11
15 15 15 15 15 15 14 14 14 14 14 14 13 13 13 13 13 13 12 12 12 12 12 12 12 12 12 11 11 11 11 11 11 11 11 10 10 10
15 15 14 14 14 14 14 14 14 14 13 13 13 13 12 12 12 12 12 12 12 12 12 12 11 11 11 11 11 11 11 11 10 10 10 10 10 10
14 14 14 14 14 14 14 14 13 13 13 13 12 12 12 12 12 12 12 12 11 11 11 11 11 11 11 11 11 10 10 10 10 10 10 10 9 9
14 14 14 13 13 13 13 13 13 13 13 12 12 12 12 12 12 12 12 12 11 11 11 11 11 11 11 10 10 10 10 10 10 10 9 9 9 9
14 14 13 13 13 13 13 13 13 12 12 12 12 12 12 12 12 12 11 11 11 11 11 11 11 10 10 10 10 10 10 10 9 9 9 9 9 9
13 13 13 13 13 13 13 13 12 12 12 12 12 11 11 11 11 11 11 11 11 10 10 10 10 10 10 10 10 10 9 9 9 9 9 9 8 8
13 13 12 12 12 12 12 12 12 12 12 11 11 11 11 11 11 11 11 10 10 10 10 10 10 10 10 10 9 9 9 9 9 9 8 8 8 8
13 12 12 12 12 12 12 12 11 11 11 11 11 11 11 11 10 10 10 10 10 10 10 10 9 9 9 9 9 9 9 9 8 8 8 8 8 8
12 12 12 12 11 11 11 11 11 11 11 11 11 11 10 10 10 10 10 10 10 10 10 9 9 9 9 9 9 9 9 9 8 8 8 8 8 7
12 12 12 11 11 11 11 11 11 11 10 10 10 10 10 10 10 10 10 10 9 9 9 9 9 9 9 9 9 9 9 8 8 8 8 8 8 7
12 11 11 11 11 11 11 11 10 10 10 10 10 10 10 10 10 9 9 9 9 9 9 9 9 9 9 9 9 8 8 8 8 8 8 8 7 7
11 11 11 11 11 11 11 10 10 10 10 10 10 10 9 9 9 9 9 9 9 9 9 9 9 8 8 8 8 8 8 8 8 8 8 7 7 7
11 11 11 11 11 10 10 10 10 10 9 9 9 9 9 9 9 9 9 9 9 9 9 8 8 8 8 8 8 8 8 8 8 7 7 7 7 7
11 11 10 10 10 10 10 10 10 9 9 9 9 9 9 9 9 9 8 8 8 8 8 8 8 8 8 8 8 8 8 8 7 7 7 7 7 7
11 10 10 10 10 10 10 9 9 9 9 9 9 9 9 8 8 8 8 8 8 8 8 8 8 8 8 7 7 8 8 7 7 7 7 7 7 7
10 10 10 10 10 9 9 9 9 9 9 9 9 8 8 8 8 8 8 8 8 8 8 8 8 7 7 7 7 7 7 7 7 7 7 7 7 7
10 10 10 10 9 9 9 9 9 9 9 8 8 8 8 8 8 8 8 8 7 7 7 7 7 7 7 7 7 7 7 7 7 7 7 6 6 6
10 10 10 9 9 9 9 9 9 9 8 8 8 8 8 8 8 8 7 7 7 7 7 7 7 7 7 7 7 7 6 6 6 6 6 6 6 6
Wind_Speed
1 1 1 1 1 2 2 3 3 2 2 2 1 1 2 3 4 4 4 5 6 7 7 6 5 4 4 3 3 3 3 2 2 2 2 2 2 3
1 1 0 0 0 0 1 1 2 3 2 2 2 1 1 2 4 4 5 5 6 7 7 6 6 5 4 4 4 3 3 3 3 2 2 2 1 1
1 2 1 0 1 1 0 1 1 2 2 2 1 0 1 1 2 3 4 4 4 5 6 6 5 4 4 4 4 3 3 3 3 2 2 2 2 2
1 2 2 1 2 1 1 1 0 1 2 2 1 0 1 2 2 2 3 3 4 5 6 6 5 5 5 5 5 5 4 4 3 3 4 4 4 3
2 2 2 2 2 2 2 1 1 1 1 2 1 1 1 1 2 2 2 2 3 4 5 5 5 5 6 6 6 6 5 5 5 5 5 5 5 5
2 2 2 2 2 2 2 2 2 2 2 2 2 1 1 1 2 2 2 1 2 3 4 4 4 5 5 6 6 6 6 6 5 6 5 5 5 5
2 2 3 4 4 3 2 2 2 2 2 2 2 1 1 1 1 2 2 1 1 1 1 1 2 2 2 3 4 5 6 6 5 5 5 5 5 5
2 2 3 4 4 4 4 3 3 3 2 2 1 1 1 1 1 2 2 2 1 1 2 1 2 1 2 4 5 5 6 6 5 5 5 5 5 5
2 2 2 2 3 2 3 4 3 3 3 3 2 2 2 2 2 2 2 2 2 2 2 1 1 2 3 4 6 6 7 7 6 6 5 5 5 5
2 3 3 2 2 2 2 3 3 2 1 1 2 2 2 2 2 3 3 2 1 1 2 2 1 2 2 4 6 8 8 8 8 7 7 7 6 6
1 2 2 2 2 3 3 3 3 3 3 2 3 2 3 3 4 3 2 2 1 1 0 2 1 1 1 2 5 7 8 9 8 8 8 8 7 6
1 1 2 2 2 3 3 2 1 2 2 3 3 3 2 2 3 3 3 3 1 1 1 2 1 1 1 2 2 4 6 7 8 9 9 8 8 6
1 0 0 1 2 2 2 2 2 1 1 2 2 2 2 2 1 1 2 3 3 2 2 3 2 1 2 1 2 2 4 4 5 7 9 9 9 9
1 1 1 1 2 2 2 1 2 3 2 2 2 1 1 1 1 1 2 2 3 4 4 4 3 3 3 1 2 2 2 4 5 5 7 8 9 10
1 1 1 3 3 2 2 3 3 2 2 1 0 1 2 2 1 1 1 1 1 1 2 4 3 3 3 3 2 2 1 2 4 4 4 5 5 5
1 1 2 3 3 2 2 2 1 1 2 1 1 1 1 1 1 0 0 1 1 2 3 1 3 4 2 2 3 2 2 3 3 3 3 3 5 7
2 2 2 2 2 2 1 1 1 1 1 1 0 1 1 1 1 1 0 0 0 1 2 2 2 0 2 3 2 3 3 2 3 3 2 3 4 5
4 2 1 1 1 1 1 0 1 0 0 0 0 0 0 0 1 1 0 0 1 2 2 2 0 2 2 2 4 4 3 3 3 2 3 3 4 4
3 2 2 2 2 2 1 1 0 1 0 1 0 0 0 0 0 0 0 0 1 2 2 2 1 1 1 3 4 5 4 3 2 2 3 3 4 4
2 2 3 2 2 2 2 1 0 0 1 0 0 0 0 0 0 0 1 1 2 2 2 1 1 2 4 4 3 4 5 4 3 3 3 2 3 4
3 2 3 3 2 2 2 1 1 1 0 0 1 1 1 1 1 1 2 2 1 2 2 3 5 5 2 1 1 3 3 5 5 4 3 2 2 2
3 3 3 3 3 2 2 2 1 1 1 1 1 1 1 1 2 2 2 2 2 3 3 3 2 0 1 1 2 3 3 3 4 5 6 6 4 4
4 4 3 3 3 3 3 2 2 2 2 2 2 2 2 1 2 2 2 2 2 2 2 2 1 1 1 2 2 2 3 3 2 2 4 6 8 9
Wind_Direction
209 193 192 227 214 205 181 172 172 211 259 259 256 224 185 164 166 167 166 163 168 172 172 162 160 161 156 145 142 140 138 149 165 178 200 205 218 222
102 83 56 269 299 89 158 166 169 181 228 251 242 226 181 156 151 145 149 146 158 163 167 167 169 170 164 151 139 133 129 136 136 125 122 125 126 154
65 74 34 75 50 26 88 116 150 165 204 274 281 257 122 129 126 125 132 129 133 150 164 166 168 169 159 144 132 126 127 129 123 116 110 117 112 120
78 75 43 59 59 53 71 67 107 183 173 200 259 212 147 152 143 140 131 130 126 128 138 139 140 141 141 137 133 130 127 123 121 117 108 108 111 110
93 95 81 76 56 43 58 58 45 68 133 161 176 138 108 116 107 105 99 100 120 118 123 127 129 131 132 131 130 126 121 116 111 106 102 97 97 99
85 89 88 95 91 75 71 65 80 80 86 107 121 109 106 93 111 125 113 90 113 112 118 123 125 134 137 139 140 140 139 132 125 120 115 109 106 107
79 75 80 85 84 78 87 90 93 93 92 100 106 101 120 127 156 170 157 150 111 127 127 138 134 141 169 173 165 160 155 149 143 139 134 128 123 120
95 65 67 69 66 62 71 82 103 117 124 122 125 145 198 197 179 168 162 143 216 219 153 211 169 206 218 207 199 187 178 172 165 157 148 141 138 134
120 102 76 64 61 61 50 47 55 71 115 146 158 195 198 207 173 161 177 175 198 193 145 206 214 228 235 222 212 204 198 193 188 185 180 173 167 165
111 119 110 75 55 72 78 57 40 23 23 150 178 208 196 185 178 183 182 157 75 87 139 177 219 235 244 227 220 215 212 208 205 204 200 196 193 195
87 98 110 99 48 85 91 75 43 360 5 66 95 109 115 126 128 102 98 100 67 296 181 147 206 253 278 262 237 224 217 214 212 213 213 213 212 210
64 63 94 101 71 94 106 104 69 323 359 33 38 42 56 79 122 146 157 148 144 239 243 150 160 117 329 291 249 232 226 229 225 225 226 226 218 210
145 281 285 85 76 86 119 144 198 183 77 76 57 35 29 25 18 169 173 165 167 210 212 158 158 151 168 257 283 229 213 221 224 231 233 233 226 213
183 231 240 116 98 97 105 104 115 100 82 68 53 13 338 303 283 261 222 198 196 207 204 170 168 178 165 178 258 264 231 222 216 225 231 238 239 233
189 191 116 102 89 75 72 87 97 98 97 90 85 274 271 271 294 335 349 9 3 299 210 188 168 170 165 182 209 219 236 244 219 220 223 223 228 221
82 60 74 70 63 49 41 51 66 114 140 165 210 264 321 356 350 357 14 360 13 339 333 284 178 160 175 194 186 213 215 225 229 227 219 229 231 223
120 74 59 54 47 32 27 17 22 55 78 55 57 22 357 346 307 301 131 101 177 272 304 325 334 162 176 176 193 227 226 239 237 218 200 230 246 235
128 128 145 158 170 179 169 324 3 33 96 113 93 131 258 280 295 328 21 124 249 261 258 261 331 22 7 316 222 216 229 234 240 222 190 205 248 250
137 156 169 177 184 183 182 180 226 273 200 121 137 246 289 306 107 326 315 293 278 269 263 255 214 170 229 281 279 227 211 232 221 223 215 207 227 248
154 169 177 177 176 176 172 162 145 42 60 96 150 251 227 218 262 259 240 242 263 272 281 289 253 219 216 232 249 270 242 211 207 219 231 231 246 262
181 180 181 178 181 177 170 164 164 191 230 225 256 269 260 233 248 258 257 260 259 257 252 261 259 255 224 110 320 295 278 250 222 209 206 214 245 267
185 184 186 178 176 173 171 170 173 202 222 237 252 257 252 233 238 248 245 251 263 255 252 268 290 321 137 188 242 258 279 298 290 264 227 209 194 211
191 186 186 183 181 178 178 179 183 208 220 230 239 244 238 243 252 250 252 245 255 255 256 283 312 288 240 223 235 255 267 278 291 305 290 275 260 253
Height
1528 1528 1528 1527 1527 1526 1526 1526 1527 1525 1525 1526 1526 1526 1527 1527 1527 1527 1527 1527 1527 1526 1527 1526 1527 1527 1527 1527 1527 1527 1527 1527 1527 1528 1528 1529 1529 1529
1526 1525 1525 1525 1525 1524 1524 1524 1524 1524 1523 1522 1523 1524 1524 1524 1523 1523 1524 1524 1524 1524 1524 1524 1524 1524 1524 1524 1524 1524 1524 1525 1525 1525 1525 1525 1526 1526
1524 1524 1523 1523 1522 1522 1522 1521 1521 1521 1520 1520 1521 1521 1521 1521 1521 1521 1521 1521 1521 1522 1522 1522 1522 1522 1522 1522 1522 1522 1522 1522 1522 1522 1523 1523 1523 1523
1522 1522 1521 1521 1520 1520 1520 1519 1519 1519 1519 1518 1518 1519 1519 1519 1519 1519 1519 1520 1520 1520 1520 1520 1520 1520 1520 1520 1520 1520 1520 1520 1520 1521 1521 1521 1521 1521
1521 1521 1520 1519 1518 1518 1518 1517 1517 1517 1517 1516 1516 1516 1517 1517 1517 1517 1518 1518 1518 1518 1518 1518 1518 1518 1518 1518 1518 1519 1519 1519 1519 1519 1519 1519 1519 1519
1520 1519 1519 1518 1517 1517 1516 1515 1515 1515 1515 1514 1514 1515 1515 1516 1516 1516 1516 1516 1516 1516 1517 1517 1517 1517 1517 1517 1517 1517 1517 1517 1518 1518 1518 1518 1518 1518
1518 1518 1517 1517 1516 1516 1515 1514 1513 1513 1513 1513 1513 1513 1514 1514 1514 1515 1515 1515 1515 1516 1516 1516 1517 1517 1517 1517 1517 1516 1517 1517 1517 1517 1517 1517 1517 1516
1517 1516 1516 1516 1515 1515 1514 1513 1513 1512 1512 1512 1512 1513 1513 1513 1514 1514 1514 1514 1514 1515 1515 1515 1515 1516 1516 1516 1516 1516 1516 1516 1516 1516 1516 1516 1516 1516
1516 1515 1515 1515 1515 1514 1514 1513 1513 1512 1512 1512 1512 1512 1512 1512 1513 1512 1512 1512 1512 1513 1514 1513 1514 1514 1514 1514 1514 1514 1514 1514 1514 1515 1515 1515 1515 1515
1515 1514 1514 1514 1514 1514 1513 1512 1512 1512 1512 1512 1512 1511 1512 1512 1512 1512 1512 1512 1512 1512 1512 1512 1512 1513 1513 1513 1513 1513 1513 1513 1513 1513 1514 1514 1513 1513
1514 1514 1513 1513 1513 1513 1513 1512 1512 1512 1512 1512 1512 1511 1511 1511 1511 1511 1511 1511 1510 1510 1511 1511 1511 1511 1511 1511 1511 1511 1512 1512 1512 1512 1512 1512 1512 1512
1514 1513 1513 1513 1513 1513 1512 1512 1511 1511 1511 1511 1511 1511 1510 1510 1510 1510 1510 1509 1509 1509 1509 1509 1509 1510 1510 1510 1510 1510 1510 1510 1510 1510 1510 1510 1510 1510
1513 1513 1513 1513 1513 1512 1512 1512 1512 1511 1511 1511 1510 1510 1510 1509 1509 1509 1509 1508 1508 1508 1508 1508 1508 1508 1508 1508 1508 1508 1508 1508 1508 1508 1508 1508 1508 1508
1512 1512 1512 1512 1512 1512 1511 1511 1511 1511 1511 1510 1510 1509 1509 1508 1508 1508 1508 1508 1507 1507 1507 1507 1506 1506 1506 1506 1506 1505 1505 1505 1505 1505 1505 1505 1505 1505
1511 1512 1512 1512 1511 1511 1510 1510 1510 1510 1509 1509 1509 1508 1508 1508 1507 1507 1507 1506 1506 1505 1505 1505 1505 1504 1504 1504 1503 1503 1503 1502 1502 1502 1502 1502 1502 1502
1510 1510 1511 1511 1510 1510 1509 1509 1508 1508 1508 1507 1507 1507 1507 1506 1506 1505 1505 1505 1504 1504 1503 1503 1503 1502 1502 1501 1501 1500 1500 1500 1499 1499 1499 1499 1499 1499
1509 1509 1509 1509 1508 1508 1508 1507 1507 1507 1506 1506 1506 1505 1505 1504 1504 1504 1503 1503 1502 1501 1501 1501 1500 1500 1499 1499 1498 1497 1497 1497 1496 1496 1495 1495 1495 1495
1506 1506 1507 1507 1507 1506 1506 1506 1505 1505 1505 1505 1504 1504 1503 1502 1502 1502 1501 1501 1500 1499 1499 1498 1498 1497 1496 1496 1496 1494 1494 1493 1493 1492 1492 1491 1491 1492
1504 1504 1505 1504 1505 1505 1504 1504 1504 1504 1503 1503 1502 1502 1501 1501 1500 1500 1499 1499 1498 1497 1497 1496 1495 1494 1493 1492 1492 1492 1491 1489 1489 1488 1488 1488 1488 1488
1501 1502 1502 1502 1503 1503 1502 1502 1502 1502 1501 1501 1500 1500 1499 1499 1498 1498 1497 1496 1496 1495 1494 1494 1493 1492 1491 1490 1489 1488 1488 1486 1485 1485 1485 1485 1485 1485
1500 1500 1500 1500 1501 1501 1501 1500 1500 1500 1499 1499 1498 1498 1497 1497 1496 1495 1495 1494 1493 1492 1491 1491 1490 1490 1489 1488 1487 1485 1485 1484 1483 1482 1482 1481 1481 1480
1497 1498 1499 1499 1499 1499 1499 1498 1498 1498 1497 1496 1496 1495 1495 1494 1494 1493 1492 1492 1491 1490 1489 1488 1488 1487 1486 1485 1483 1482 1482 1481 1481 1480 1480 1479 1478 1476
1495 1496 1496 1496 1496 1496 1496 1496 1496 1495 1495 1494 1493 1492 1492 1491 1491 1490 1490 1489 1488 1487 1486 1485 1484 1484 1483 1482 1481 1480 1479 1478 1477 1477 1476 1476 1475 1475